GFSGL_con_lsi_060.txt.gz
Lid_Strength_Index
7 7 7 6 6 7 6 7 7 8 8 9 8 8 8 9 8 9 9 9 10 10 10 10 9 9 9 7 6 6 8 8 10 10 8 8 9 8 7 7 6 7 6
7 6 6 6 5 7 8 8 8 8 8 9 8 8 8 8 9 9 10 9 9 10 10 10 9 7 9 9 10 10 10 10 10 10 10 9 9 9 9 9 7 6 7
6 6 5 5 8 9 8 8 9 9 9 8 8 8 8 8 9 10 9 9 9 10 10 9 8 8 8 10 9 9 10 8 9 10 10 9 10 9 9 9 9 8 6
6 6 8 8 8 8 8 9 8 8 8 8 8 8 8 9 9 8 8 9 10 9 8 7 7 7 8 9 9 10 9 9 9 10 10 10 10 9 9 10 10 9 8
9 9 9 9 8 9 9 9 9 8 8 8 8 8 8 8 8 9 9 9 10 9 8 7 7 7 5 7 9 9 9 10 10 10 11 10 10 10 11 9 10 10 9
10 9 8 9 10 9 9 9 9 9 8 8 8 9 9 8 8 8 9 9 8 7 7 6 7 6 5 5 5 6 7 10 11 11 11 11 11 10 9 11 11 11 11
10 9 9 9 9 9 9 9 9 9 9 9 9 10 10 9 8 7 7 8 8 8 8 8 8 6 6 7 6 6 7 7 8 10 11 11 10 10 10 11 10 10 10
10 10 10 9 9 9 9 9 10 10 10 10 10 10 10 8 6 6 6 8 8 8 8 8 8 8 8 8 8 8 8 9 9 8 9 9 9 9 9 8 8 8 8
11 10 9 9 10 10 10 10 10 10 10 10 10 9 9 9 6 5 6 8 9 8 7 7 8 8 7 6 8 9 9 9 7 6 6 6 6 6 7 8 9 10 11
10 8 9 10 10 10 10 10 10 10 10 10 9 9 7 8 6 5 5 9 8 8 7 7 6 8 6 6 9 10 11 10 10 8 8 8 7 8 7 8 9 10 10
9 10 9 9 10 10 10 10 11 11 11 11 10 9 8 7 7 5 4 8 8 7 7 8 7 6 6 6 6 9 10 9 9 8 9 9 9 9 9 9 8 9 10
10 10 10 10 10 9 10 10 10 11 11 12 12 10 8 8 6 6 4 4 6 7 7 7 7 5 5 5 5 6 5 7 10 11 11 10 10 10 9 9 8 8 8
10 10 10 9 9 9 10 10 11 11 11 11 10 10 10 8 9 6 5 4 4 6 6 7 6 5 5 6 5 5 7 9 10 14 12 11 11 10 8 8 8 8 8
10 10 10 10 9 9 10 9 10 11 11 9 10 10 9 9 9 8 7 7 5 4 7 6 7 7 10 9 9 8 8 10 10 11 12 12 11 10 10 9 10 10 9
10 10 10 10 10 10 9 9 9 8 8 9 9 9 10 10 8 6 6 7 8 7 6 7 8 8 8 9 9 9 9 9 11 12 13 13 12 11 11 10 10 10 11
10 10 11 10 10 9 9 8 6 6 7 6 6 6 7 6 5 5 4 4 4 5 7 10 10 11 11 10 11 10 10 10 11 11 14 13 13 13 12 11 10 12 12
11 10 10 10 9 8 8 8 8 6 6 5 5 5 5 5 4 4 4 4 4 4 7 9 9 10 11 10 10 10 10 10 11 11 11 12 14 13 14 13 12 12 12
10 10 10 9 9 8 7 7 7 7 7 6 6 5 5 4 3 3 3 3 5 5 6 8 8 9 10 10 9 9 9 11 12 12 13 16 19 16 15 14 13 17 13
11 11 9 9 8 8 7 7 7 6 6 7 6 8 7 5 4 4 3 4 5 7 7 7 7 7 8 8 8 9 10 11 13 15 15 17 21 16 17 15 15 15 15
12 12 11 9 8 9 9 9 8 7 7 7 8 9 10 10 8 6 8 6 5 5 6 7 7 6 6 7 8 8 10 12 13 14 17 19 21 19 18 19 19 17 14
13 12 12 11 10 10 10 9 8 7 8 8 10 9 8 7 7 6 5 7 5 5 5 6 6 6 6 6 6 7 8 9 10 11 13 15 21 19 18 18 19 15 14
12 11 11 11 10 9 9 8 7 7 8 9 8 7 7 6 6 5 5 5 4 4 4 4 5 5 5 5 6 6 7 7 10 11 14 15 15 17 19 18 19 19 17
13 14 14 12 12 11 11 10 10 10 10 9 9 10 10 10 9 9 9 10 9 9 7 3 3 3 4 4 4 5 6 7 8 9 11 14 15 17 21 19 19 19 19
15 17 16 15 15 14 14 13 12 12 11 12 12 12 12 12 12 13 12 12 11 11 9 9 7 3 3 3 3 3 4 5 6 8 9 12 13 16 19 19 19 20 20
17 19 18 18 17 16 16 15 15 15 15 15 14 14 14 13 13 14 14 13 13 13 12 11 9 9 5 3 3 4 4 5 6 7 9 10 12 14 16 18 20 18 20
18 20 20 19 19 18 17 17 17 17 17 17 16 15 15 15 14 15 15 15 14 13 13 12 10 10 10 6 3 3 5 6 7 8 9 10 12 13 14 16 19 19 18

GFSGL_con_lsi_063.txt.gz
Lid_Strength_Index
8 7 7 6 6 6 6 6 8 8 8 8 8 9 9 9 8 10 10 10 10 11 11 11 10 9 10 9 7 7 7 9 10 11 9 9 10 9 8 8 7 7 7
8 8 7 7 7 7 6 7 8 9 8 8 9 9 8 9 9 10 11 10 10 11 10 10 10 9 9 9 10 10 10 10 10 11 11 10 9 9 9 9 7 6 7
7 6 7 6 7 7 8 8 9 8 9 9 9 9 9 9 9 10 10 10 10 10 10 11 9 9 9 10 10 10 10 9 10 11 10 9 10 9 9 8 8 8 7
7 6 6 8 7 9 9 8 8 9 9 8 9 9 9 9 9 9 9 9 10 10 9 9 8 8 8 8 9 9 9 10 10 10 10 10 10 9 9 10 9 9 9
6 7 8 8 8 9 9 10 10 8 9 9 9 9 9 9 9 9 9 9 10 10 9 8 7 6 5 7 8 9 10 10 10 10 10 11 11 11 10 9 10 10 10
9 10 10 10 9 9 9 10 9 10 10 10 10 10 10 9 8 8 9 10 9 8 8 7 6 6 6 4 5 6 8 10 10 11 11 12 11 10 11 10 11 12 12
11 10 9 9 9 9 9 9 10 11 10 11 11 10 10 9 8 7 7 8 8 8 8 8 8 7 7 7 5 5 6 6 7 10 12 11 12 10 10 10 10 10 10
11 10 10 10 9 9 9 10 11 10 11 11 11 10 10 9 7 6 6 8 8 8 7 8 8 8 8 7 8 9 9 8 8 8 10 9 9 9 9 8 8 9 9
10 10 10 9 9 10 11 11 11 11 11 11 10 10 10 9 7 6 6 8 9 8 7 7 8 8 6 5 8 9 8 8 7 6 6 6 6 5 6 11 11 11 12
10 9 9 9 10 11 11 11 11 11 10 11 11 10 9 9 7 5 5 8 8 8 9 7 6 7 6 6 9 10 11 9 9 9 8 8 7 7 7 8 11 11 11
9 9 9 10 10 11 11 11 10 11 11 11 11 10 10 9 8 6 5 6 7 8 8 8 7 6 5 5 6 9 10 8 9 9 8 9 9 9 9 9 9 10 11
10 10 10 11 11 10 11 10 10 11 12 12 14 11 10 9 7 7 5 5 6 8 8 7 7 5 5 5 6 6 5 7 9 9 10 10 10 10 9 9 8 8 8
11 11 11 11 11 10 10 11 11 11 12 11 11 10 10 9 9 6 6 5 5 6 6 6 5 5 5 5 5 5 6 9 10 13 11 11 11 10 9 8 8 8 8
12 11 11 12 11 10 10 10 11 11 11 10 9 9 9 9 9 8 8 8 5 6 5 5 5 6 6 6 8 7 8 10 10 11 12 12 11 11 11 9 10 10 10
13 12 12 11 11 11 10 10 10 8 8 7 7 8 8 9 8 7 8 9 8 7 7 6 6 7 7 8 8 8 8 10 11 12 13 13 12 11 12 11 11 11 12
13 12 11 11 11 11 11 10 8 7 7 6 6 6 5 6 5 5 5 4 4 4 7 7 7 7 8 8 8 9 9 10 10 11 13 13 12 13 13 12 11 13 13
13 12 12 11 11 11 11 11 11 8 6 5 5 5 5 5 4 4 3 4 4 4 6 7 8 8 8 8 9 9 9 10 9 11 12 13 12 13 15 14 13 13 13
13 12 13 13 13 13 12 10 9 10 10 9 7 5 5 5 4 4 3 3 5 4 5 7 8 8 8 8 9 9 9 9 11 11 12 12 14 15 16 15 14 18 15
14 14 14 14 14 13 11 11 10 10 10 10 8 6 7 5 4 4 3 6 5 5 6 6 6 6 7 7 8 8 9 9 12 14 12 12 16 16 17 16 17 17 17
14 15 15 13 13 12 11 10 10 10 9 9 8 8 9 10 11 10 10 7 6 5 4 5 5 5 5 6 7 7 9 10 11 12 13 13 15 17 17 18 21 19 15
15 14 16 14 13 12 12 12 12 12 12 11 11 10 10 9 9 9 9 9 9 7 5 4 4 5 5 5 6 6 7 8 9 10 10 12 15 19 17 18 20 17 15
16 17 16 15 14 14 13 14 14 13 13 14 13 11 11 12 13 12 12 12 11 11 10 9 8 5 4 5 5 5 6 7 8 9 10 10 13 15 17 19 20 20 18
18 20 18 16 17 16 17 16 16 16 16 16 14 14 14 14 14 14 15 15 13 13 12 11 10 10 9 5 3 4 5 6 6 7 9 10 12 13 17 18 19 20 20
19 21 19 19 19 19 20 19 18 19 18 18 17 16 16 16 15 15 16 16 15 14 14 13 12 11 10 10 10 3 3 4 4 7 8 9 11 13 15 17 18 21 21
23 25 25 23 23 21 22 20 21 22 21 20 19 18 17 17 16 16 16 16 16 15 14 14 13 12 12 11 11 10 4 3 5 6 8 9 10 12 14 15 18 18 21
22 24 25 26 26 24 24 21 23 21 21 21 21 20 19 18 17 17 16 16 16 15 15 14 14 13 13 12 11 11 10 4 5 6 8 9 10 12 14 14 16 17 17

GFSGL_con_lsi_066.txt.gz
Lid_Strength_Index
8 8 8 8 7 7 6 6 6 6 6 7 8 8 8 10 9 9 10 10 10 11 11 11 10 10 9 10 9 8 8 7 9 9 8 8 8 8 8 7 7 6 6
9 9 9 8 7 7 7 6 7 8 8 8 9 9 9 9 9 10 10 10 11 11 10 10 10 8 9 8 8 8 8 8 10 11 10 9 9 8 8 8 7 6 6
9 8 8 7 7 8 7 7 8 9 9 9 9 8 9 9 9 10 10 10 10 10 9 9 9 9 9 8 8 9 9 9 9 10 10 9 9 8 8 8 7 7 6
7 7 7 7 7 8 9 10 9 9 9 9 9 9 9 9 9 9 10 10 9 9 9 9 8 8 8 8 7 8 9 9 10 10 10 10 9 9 8 9 9 7 8
7 7 8 9 10 10 10 9 9 9 9 9 9 10 10 9 9 10 9 9 9 9 9 8 8 7 6 6 8 8 9 10 10 10 10 10 10 10 10 9 9 9 8
8 9 10 10 11 10 10 9 9 9 9 10 10 11 10 10 8 7 8 9 9 9 9 8 7 5 6 5 4 5 8 9 10 11 10 11 10 10 9 9 10 10 11
10 10 10 10 10 10 9 9 10 10 9 10 11 11 11 10 8 7 7 9 9 9 9 8 7 7 6 8 6 6 6 6 8 9 10 10 11 9 9 9 9 9 9
11 11 10 10 9 10 10 10 10 10 11 11 11 11 10 9 8 7 7 8 8 8 8 8 8 8 8 8 8 8 8 8 8 8 8 9 9 8 8 8 8 8 8
11 11 10 9 10 10 10 10 11 11 12 12 11 11 11 10 8 7 7 8 8 8 7 7 8 8 7 6 8 9 9 8 7 6 6 6 6 5 6 8 10 10 11
10 9 9 10 10 10 10 11 12 13 12 12 11 11 10 10 9 7 7 9 7 7 7 7 6 7 6 6 7 9 11 9 8 9 9 8 6 7 6 7 9 11 11
9 10 10 10 10 11 12 12 13 12 12 12 12 11 11 10 10 7 6 7 7 7 7 8 7 6 5 5 5 8 9 8 8 9 9 8 8 8 8 8 8 9 10
10 11 10 11 11 12 13 12 12 12 12 12 13 12 11 10 8 7 6 5 6 7 7 7 7 5 5 5 5 5 6 7 8 9 9 9 9 9 8 8 8 8 8
11 12 12 12 13 13 13 12 12 12 12 12 11 11 10 9 10 6 5 5 5 7 5 5 5 5 4 5 4 4 5 6 7 8 8 9 9 8 8 8 7 7 8
13 14 14 14 14 13 12 12 12 13 12 11 10 10 10 9 8 8 8 7 6 6 6 5 5 5 6 6 5 4 5 6 7 8 9 9 9 10 10 9 10 9 10
14 14 15 14 14 13 12 12 11 11 11 10 10 9 9 8 7 5 7 6 6 7 8 9 6 6 7 7 7 6 6 7 8 8 10 10 11 11 11 10 10 10 11
16 16 15 15 14 13 13 13 10 10 9 8 8 8 8 6 6 5 4 4 4 5 7 7 6 6 6 7 7 7 7 7 8 8 9 9 10 11 11 11 10 11 12
17 16 16 15 14 14 14 14 14 12 10 9 8 7 7 6 6 5 4 4 4 4 4 5 6 6 6 6 7 7 8 7 7 8 8 9 10 11 12 12 12 12 12
17 17 17 16 16 15 14 13 13 13 13 12 9 8 9 8 7 5 5 5 6 5 4 4 5 6 7 6 6 7 7 7 8 8 10 10 11 11 12 12 12 14 13
16 16 16 16 14 13 13 14 14 14 14 13 12 12 12 9 9 9 8 8 8 7 6 5 4 4 6 6 6 6 7 7 8 10 10 10 11 11 12 13 13 15 15
16 16 17 16 16 16 15 15 15 14 14 14 14 14 13 13 14 13 12 12 13 12 11 10 9 6 5 4 6 6 6 7 8 10 10 10 11 12 12 13 15 14 12
17 17 18 16 17 17 17 17 16 16 16 16 16 15 14 14 14 14 14 15 14 14 13 12 11 10 9 6 4 5 6 6 7 8 9 10 11 12 12 13 14 14 13
19 19 19 19 19 19 19 17 18 19 18 19 18 16 17 16 15 15 16 16 16 15 14 13 13 12 10 10 11 7 5 5 6 7 9 9 10 11 12 13 14 14 14
21 24 22 20 21 21 21 20 21 23 20 21 20 19 18 18 18 16 17 17 17 16 15 14 14 13 12 11 11 10 9 4 4 5 7 8 9 10 12 13 14 15 15
23 26 22 23 25 23 27 26 24 23 22 22 24 21 20 19 20 19 19 18 18 17 16 15 14 14 13 13 12 10 10 10 10 4 5 7 9 10 11 12 13 15 15
27 29 29 28 28 29 30 27 27 28 27 26 25 23 21 20 20 19 20 19 18 18 17 16 15 14 14 14 13 12 11 11 11 7 5 7 8 10 11 11 13 14 16
24 26 28 30 30 31 32 32 29 30 28 25 25 24 22 22 21 20 20 20 19 19 17 16 15 15 15 14 13 13 12 11 12 8 5 7 9 9 11 11 12 13 14

GFSGL_con_lsi_069.txt.gz
Lid_Strength_Index
2 2 3 3 3 4 4 5 5 5 6 6 7 7 7 6 6 6 6 6 6 6 6 7 6 5 5 5 4 4 4 4 6 4 3 3 4 4 4 3 4 4 4
4 4 5 5 5 5 5 5 5 7 6 7 7 7 7 6 6 6 6 6 7 7 6 6 5 5 5 4 4 4 4 3 4 5 3 5 5 4 4 4 5 5 4
6 6 6 6 6 6 6 6 7 7 6 7 7 7 6 6 6 6 6 6 6 6 5 5 5 5 5 4 4 4 3 4 4 5 5 5 5 4 5 4 5 4 4
6 6 6 6 6 7 7 7 9 9 7 8 6 6 6 6 6 6 6 6 6 5 5 5 5 5 4 4 3 3 4 5 4 5 6 5 5 4 5 6 6 5 5
6 6 7 8 9 10 10 10 10 7 8 7 7 7 6 6 7 7 7 6 5 5 4 5 4 4 4 4 4 4 4 4 5 6 6 6 6 6 6 6 7 6 5
7 8 9 10 11 10 10 10 8 8 7 7 7 7 7 8 9 9 8 6 5 5 5 4 4 5 4 4 4 4 4 4 5 6 6 6 6 6 6 6 7 7 8
7 9 10 9 10 8 9 8 8 8 7 7 7 7 8 7 9 8 8 6 5 5 5 5 5 4 4 3 4 6 5 6 6 5 6 5 5 5 6 7 7 7 7
10 10 10 9 9 9 8 8 8 8 8 7 8 8 8 8 9 8 8 6 5 5 5 4 4 4 3 4 5 5 5 4 4 5 4 4 4 5 6 6 6 6 5
10 10 9 9 9 8 8 8 8 8 8 8 8 8 8 7 8 8 8 6 6 6 5 4 4 3 4 5 5 6 5 5 5 5 5 5 5 6 5 5 7 7 7
9 9 9 9 8 9 9 8 8 9 9 9 9 8 8 7 7 8 7 6 6 6 6 5 5 5 5 5 5 5 6 5 5 5 4 5 5 5 5 5 5 7 7
9 9 9 9 9 9 9 9 9 9 9 9 10 8 7 7 7 7 7 6 6 6 6 5 5 5 5 5 5 4 4 4 4 5 5 5 5 5 4 4 4 5 7
10 10 10 10 10 10 10 10 10 10 10 10 11 10 8 7 8 7 7 7 6 6 5 4 4 5 5 5 4 4 4 5 4 5 5 5 5 5 4 4 4 5 5
11 11 11 11 12 12 12 12 12 12 12 12 11 10 9 8 7 7 8 8 6 5 5 4 5 5 5 5 4 4 4 3 5 5 5 5 5 4 4 5 5 5 5
13 13 13 13 13 13 13 13 13 12 12 12 11 10 10 9 9 8 7 7 6 5 5 5 5 5 5 4 3 3 3 2 4 4 5 4 4 5 5 5 6 6 6
14 15 14 14 14 14 14 13 13 12 11 11 11 11 10 10 9 9 7 6 5 5 5 5 5 5 5 4 4 3 3 3 4 4 4 5 5 5 5 5 6 6 7
15 15 15 14 14 14 14 14 13 12 11 11 10 10 10 10 10 9 7 6 6 5 5 6 5 5 4 4 4 4 3 4 3 4 5 5 5 5 6 6 6 7 7
16 16 15 15 15 15 15 14 14 12 12 11 11 11 12 11 10 9 9 9 7 5 5 4 5 4 4 3 3 4 4 3 3 4 5 5 5 5 6 6 6 7 8
16 17 16 16 15 15 15 14 13 14 14 13 12 12 13 12 11 11 11 10 10 9 9 8 7 4 4 4 3 4 3 3 4 4 5 4 4 5 6 6 6 7 7
16 17 16 16 16 16 15 14 14 15 14 15 14 13 13 12 12 12 12 13 13 12 11 10 9 9 8 6 3 3 3 3 4 4 4 4 4 5 6 6 6 9 9
17 18 18 17 17 16 16 16 15 16 15 15 15 15 14 14 14 14 13 14 14 13 13 13 12 11 10 9 8 7 3 3 4 4 4 4 4 5 5 6 6 7 8
18 18 20 18 18 17 17 17 17 17 17 16 16 15 17 16 15 15 15 15 15 14 14 14 14 12 11 10 9 9 9 5 3 4 4 4 4 6 5 5 6 7 8
20 20 19 19 18 18 18 18 17 18 17 17 16 16 17 15 16 16 15 15 15 15 14 15 14 13 12 11 11 10 9 8 7 4 4 4 4 5 5 6 7 7 8
21 21 20 19 19 20 19 19 18 18 18 18 18 18 17 17 17 16 16 15 15 15 15 15 15 14 13 12 11 11 10 9 9 9 8 4 5 5 6 6 7 8 8
21 21 21 20 21 21 20 20 19 20 20 19 19 19 18 18 17 17 17 15 16 16 16 16 15 15 14 13 12 11 10 10 10 9 9 8 4 5 6 6 7 8 8
21 21 21 21 21 21 21 20 20 21 21 20 20 19 19 19 18 17 17 16 17 17 17 16 15 15 15 14 13 13 12 12 12 11 10 9 4 5 6 6 7 8 8
20 21 21 20 20 20 21 21 21 21 22 21 21 20 20 19 18 18 18 17 17 18 17 16 16 16 16 14 12 12 13 13 12 12 10 10 4 5 6 6 7 8 9

GFSGL_con_lsi_075.txt.gz
Lid_Strength_Index
1 1 1 1 0 1 1 1 2 2 2 3 5 6 6 5 5 5 5 5 6 6 5 4 4 4 5 5 5 5 5 4 6 5 4 3 2 1 1 0 0 1 0
1 1 1 1 2 3 4 4 4 5 4 6 6 5 4 5 6 6 6 6 6 6 4 4 5 5 5 5 5 4 4 4 5 6 4 3 2 1 1 1 1 1 1
1 1 2 4 5 6 5 5 5 6 6 5 5 6 7 6 6 6 6 6 6 5 5 5 5 5 5 4 4 4 3 4 4 4 4 3 2 1 1 1 1 1 1
2 3 4 5 5 6 5 5 5 6 7 7 7 6 6 6 7 6 6 7 6 5 5 5 6 6 5 4 4 3 4 4 4 4 4 4 3 2 2 2 3 2 2
2 3 5 6 6 4 5 6 6 7 7 6 6 6 6 5 5 4 5 6 6 6 6 6 5 5 6 5 4 4 4 4 4 4 4 4 3 3 3 2 3 2 2
4 6 6 5 6 7 8 8 7 7 7 6 6 5 5 4 9 9 9 7 7 7 7 7 6 6 6 7 7 7 6 5 5 5 5 4 4 3 2 3 3 4 5
5 6 6 6 8 8 9 8 8 7 6 5 5 5 5 6 9 9 10 8 8 8 7 7 7 6 6 4 5 7 7 7 8 5 5 4 4 2 3 3 4 4 4
7 7 7 7 7 8 7 7 7 5 5 4 5 6 6 6 9 10 10 8 7 7 7 6 6 5 4 5 4 4 4 3 3 3 3 3 2 2 2 2 3 4 3
7 6 7 7 8 8 8 6 5 5 6 6 6 7 7 7 10 10 10 7 7 7 7 6 6 6 6 6 5 5 5 4 3 4 3 3 3 4 4 3 4 5 5
7 7 8 8 6 5 5 5 6 6 7 7 8 8 9 8 10 10 9 9 9 9 9 8 9 8 8 7 6 6 6 5 4 3 3 3 3 2 3 3 3 5 5
5 5 5 5 6 6 6 7 7 8 8 8 9 8 9 9 9 10 10 10 10 10 10 9 8 8 8 7 7 6 6 5 5 4 3 2 1 1 1 1 2 3 5
5 6 6 7 7 7 7 8 8 8 9 10 10 10 9 9 10 10 11 11 11 11 11 8 7 7 7 7 7 6 6 6 5 5 3 3 2 1 1 1 1 2 2
7 7 7 8 9 9 9 9 10 10 11 11 11 11 10 10 9 11 12 12 12 11 10 9 8 7 7 7 6 6 6 5 5 5 4 2 1 0 0 1 1 1 2
8 8 9 10 11 11 11 11 11 11 11 12 12 11 11 11 11 12 12 12 12 11 10 9 9 8 7 6 6 4 5 5 4 4 3 2 1 1 1 1 2 3 4
10 11 11 12 12 12 12 12 12 13 13 12 12 12 13 13 13 14 14 14 13 12 11 9 8 7 6 5 4 4 4 4 4 3 3 2 2 2 1 1 2 3 4
12 12 12 12 12 12 12 12 14 14 14 15 15 15 14 15 15 15 15 14 14 12 11 9 9 9 8 7 6 6 4 3 3 3 3 3 3 2 2 2 2 3 4
13 14 14 13 13 13 13 13 13 14 14 14 15 16 16 16 16 15 15 14 13 11 10 10 10 10 9 8 8 7 6 5 3 2 3 3 2 3 3 3 3 4 4
16 15 14 13 13 13 13 13 13 13 14 13 14 15 15 15 16 15 14 13 11 11 10 10 10 10 10 10 9 9 7 6 5 5 2 2 2 2 3 3 3 4 4
15 15 14 14 14 15 14 14 14 14 14 14 13 13 13 15 15 13 13 12 12 12 11 11 10 10 10 10 9 9 8 7 7 6 5 3 2 2 3 3 3 4 4
17 17 16 15 15 15 15 15 15 15 15 15 14 14 14 15 15 13 11 11 12 11 11 11 11 11 11 10 9 9 9 8 8 7 6 5 3 2 2 2 3 3 4
16 16 18 16 16 16 16 16 15 15 15 15 15 14 18 16 15 13 12 12 12 12 12 12 11 11 10 10 10 10 10 9 9 8 7 7 6 5 2 2 2 3 3
17 17 17 17 17 16 16 16 16 16 16 15 15 13 14 14 13 13 12 12 12 12 11 11 11 11 10 10 10 10 11 10 10 10 9 8 7 7 5 2 2 2 4
18 18 17 17 17 17 17 16 16 16 15 15 14 14 13 13 13 13 13 12 12 12 12 11 11 11 11 10 10 10 11 10 10 10 10 9 9 8 7 7 3 3 4
18 17 18 18 17 18 17 17 16 16 15 15 14 14 14 14 13 13 13 12 12 12 12 12 11 12 11 11 10 10 10 10 10 10 11 11 11 9 8 7 7 2 3
17 17 18 18 18 17 17 16 15 15 15 15 15 15 14 14 14 13 13 12 13 13 12 12 12 11 11 11 11 11 11 11 11 12 12 11 11 10 9 8 7 5 3
18 18 18 18 17 16 16 16 16 16 16 15 15 15 15 15 14 14 13 13 13 13 13 12 12 12 12 11 11 10 11 12 12 13 12 11 11 10 9 8 7 6 3

GFSGL_con_lsi_081.txt.gz
Lid_Strength_Index
2 1 1 2 2 3 3 3 3 3 3 4 6 7 6 5 5 6 6 6 6 6 6 7 7 8 7 7 8 8 9 10 12 10 10 9 10 9 8 8 7 7 7
1 2 2 2 2 3 3 3 4 5 6 6 6 5 5 6 5 5 5 5 6 6 5 6 6 6 8 8 9 9 10 9 10 10 10 10 9 8 8 9 7 6 7
2 2 3 3 3 4 4 5 5 6 6 6 6 6 6 5 4 5 5 5 5 5 6 7 7 8 10 10 10 10 9 8 10 11 11 11 11 10 10 10 9 9 6
2 4 4 5 5 5 6 6 5 6 6 6 6 5 6 5 5 5 5 6 6 7 7 8 9 9 10 10 10 10 9 10 11 12 12 12 12 11 11 11 11 10 9
5 5 6 7 6 7 6 6 6 5 6 6 6 6 6 5 5 5 5 8 10 10 10 9 10 9 8 9 10 11 11 12 12 12 11 13 13 13 12 12 11 10 9
7 8 7 7 7 7 7 7 7 7 6 6 6 6 6 6 8 9 10 10 10 11 11 11 11 10 10 9 10 10 10 12 13 13 12 12 11 12 11 11 11 10 11
8 7 7 7 8 8 7 8 8 8 7 7 7 7 6 7 10 10 10 11 11 12 12 12 11 9 10 11 11 11 11 10 11 12 12 11 11 11 10 8 9 9 9
8 8 8 8 9 8 8 8 8 8 8 8 8 8 8 9 10 10 11 12 12 12 12 12 12 12 12 11 12 13 13 12 11 10 11 10 9 8 7 6 6 8 9
8 8 8 8 9 8 8 9 8 9 9 8 7 8 10 11 11 11 11 12 13 13 12 12 12 13 12 10 13 13 13 12 10 9 8 8 7 6 5 6 7 8 12
8 8 7 7 7 8 8 8 7 7 7 8 9 10 11 13 12 12 13 14 15 15 14 13 13 13 12 11 13 13 14 13 12 12 10 9 8 7 6 5 5 7 9
6 6 6 7 7 7 7 6 7 9 10 12 13 13 13 14 13 12 13 15 15 15 15 15 14 13 12 12 11 13 13 11 11 10 10 9 8 7 6 5 5 6 7
5 7 7 7 7 6 8 8 9 10 12 13 13 14 14 15 14 14 14 14 14 15 15 15 15 13 13 12 12 11 10 11 10 10 9 8 8 7 6 4 5 5 4
7 7 7 8 8 9 10 11 12 12 13 14 14 14 15 15 15 15 15 15 15 15 15 15 15 14 13 13 12 12 12 12 11 11 9 7 6 6 6 5 3 3 4
10 9 10 12 12 13 12 12 14 14 14 15 14 14 15 16 16 16 16 16 16 16 16 16 16 15 14 14 14 13 13 12 11 11 11 9 6 5 6 4 4 3 4
12 12 13 14 15 15 15 15 16 16 15 16 16 15 16 17 17 16 16 16 17 16 17 17 16 15 15 15 15 14 12 12 12 11 10 10 8 7 5 4 4 4 4
14 14 15 15 15 16 16 16 15 15 15 15 15 15 15 16 16 16 16 15 15 15 17 18 19 21 19 17 16 15 14 13 12 11 11 10 10 8 8 3 4 5 4
16 15 16 16 15 15 15 15 17 16 15 15 15 15 15 15 16 16 15 15 15 14 18 18 21 22 21 16 15 15 15 14 12 12 13 12 10 9 8 8 4 4 4
16 16 16 16 16 16 16 16 16 16 17 16 15 15 15 16 16 16 15 15 16 16 16 18 19 18 17 15 15 15 15 15 14 14 14 13 12 11 10 9 8 4 4
16 16 16 17 17 17 16 16 16 16 16 16 16 16 16 16 16 16 16 18 17 17 17 16 18 18 18 16 20 19 20 19 17 19 15 13 13 12 12 11 9 8 7
18 18 17 17 16 17 17 17 17 17 17 17 17 17 18 18 21 23 22 22 20 17 17 17 17 17 17 19 22 21 18 20 15 16 15 13 13 13 13 12 11 10 9
18 18 17 17 18 17 17 18 18 18 18 18 19 20 20 20 21 21 18 20 19 19 19 19 19 20 19 21 19 22 20 21 18 15 13 14 14 15 13 12 12 11 9
18 18 18 18 18 19 19 19 19 19 19 20 20 19 20 22 21 20 19 21 24 22 19 18 20 19 20 17 16 22 20 19 18 14 15 15 15 14 14 14 13 12 10
19 20 19 19 19 20 21 20 22 23 23 23 22 21 21 23 23 20 21 24 20 19 19 21 24 21 19 21 20 15 14 14 14 15 15 15 15 16 16 15 13 12 12
20 21 20 21 23 23 24 25 24 21 20 21 24 25 24 25 26 26 23 23 23 23 25 24 21 19 18 18 15 15 14 14 13 13 17 16 16 16 16 16 14 13 12
22 23 25 26 27 27 27 24 26 27 26 26 26 25 23 26 23 24 26 25 24 27 22 22 22 19 18 19 18 16 15 13 14 14 13 14 15 17 17 16 14 12 12
22 24 24 23 23 25 24 26 26 28 27 24 26 28 26 24 24 27 25 24 21 22 23 21 20 20 19 17 15 13 14 14 14 13 13 13 14 15 16 15 14 13 13